Location: Boncourt
(49.6160°N, 3.9448°E)
Time: 22:31:42
(UTC+00:00)

USA 281 - Pass Details

Date: 09 February 2023
Orbit: 1079 x 1080 km, 106.0° (Epoch: 28 March)

Event Time Altitude Azimuth Distance (km) Brightness Sun altitude
Rises 17:21:17 0° 25° (NNE) 3,890 5.7 -5.2°
Reaches altitude 10° 17:23:49 10° 23° (NNE) 2,931 5.1 -5.6°
Maximum altitude 17:30:20 69° 302° (WNW) 1,152 3.6 -6.6°
Drops below altitude 10° 17:36:50 10° 220° (SW) 2,915 6.4 -7.6°
Sets 17:39:21 0° 218° (SW) 3,868 7.0 -8.0°
